Irkutsk, Russia

5:09 PM +08 on January 20, 2018 (GMT +0800)
Irkutsk

Weather History for UIII - January, 2018

Change the Weather History Date:

Saturday, January 13, 2018

  Actual Average Record
Temperature  
Mean Temperature 8 °F -  
Max Temperature 21 °F - - ()
Min Temperature -5 °F - - ()
Degree Days  
Heating Degree Days 56    
Moisture  
Dew Point 10 °F    
Average Humidity 86    
Maximum Humidity 93    
Minimum Humidity 57    
Precipitation  
Precipitation 0.00 in - - ()
Sea Level Pressure  
Sea Level Pressure 30.10 in    
Wind  
Wind Speed 4 mph ()    
Max Wind Speed 9 mph    
Max Gust Speed -    
Visibility 4.3 miles    
Events Fog , Snow    
T = Trace of Precipitation, MM = Missing Value Source: Averaged Metar Reports

Daily Weather History Graph

Daily Weather History Graph

Search for Another Location

Airport or City:

Trip Planner

Search our weather history database for the weather conditions in past years. The results will help you decide how hot, cold, wet, or windy it might be!

Date:

Astronomy

Jan. 13, 2018 Rise Set
Actual Time 9:06 AM +08 5:15 PM +08
Civil Twilight 8:27 AM +08 5:55 PM +08
Nautical Twilight 7:44 AM +08 6:38 PM +08
Astronomical Twilight 7:03 AM +08 7:19 PM +08
Moon 5:30 AM +08 (1/13) 2:38 PM +08 (1/13)
Length of Visible Light 9h 28m
Length of Day
8h 09m
Waning Crescent, 13% of the Moon is Illuminated
Jan 13
Waning Crescent
Jan 17
New
Jan 25
First Quarter
Jan 31
Full
Feb 7
Last Quarter

Hourly Weather History & Observations

Time (+08) Temp. Windchill Dew Point Humidity Pressure Visibility Wind Dir Wind Speed Gust Speed Precip Events Conditions
12:00 AM 17.6 °F 8.4 °F 15.8 °F 93% 30.01 in 6.2 mi NW 6.7 mph - N/A   Mostly Cloudy
12:30 AM 17.6 °F 8.4 °F 15.8 °F 93% 30.01 in 6.2 mi NW 6.7 mph - N/A   Mostly Cloudy
1:00 AM 19.4 °F 12.9 °F 15.8 °F 86% 30.04 in 6.2 mi WNW 4.5 mph - N/A   Scattered Clouds
1:30 AM 19.4 °F 12.9 °F 15.8 °F 86% 30.04 in 6.2 mi WNW 4.5 mph - N/A   Scattered Clouds
2:00 AM 20 °F - 17 °F 82% 30.19 in - NW 2.2 mph - -   Partly Cloudy
2:00 AM 17.6 °F 10.8 °F 15.8 °F 93% 30.04 in 6.2 mi NNW 4.5 mph - N/A   Mostly Cloudy
2:30 AM 19.4 °F 12.9 °F 15.8 °F 86% 30.04 in 6.2 mi NNW 4.5 mph - N/A Snow Light Snow Showers
3:00 AM 17.6 °F 10.8 °F 15.8 °F 93% 30.06 in 6.2 mi NW 4.5 mph - N/A Snow Light Snow Showers
3:30 AM 17.6 °F 10.8 °F 15.8 °F 93% 30.06 in 3.1 mi WNW 4.5 mph - N/A Snow Light Snow Showers
4:00 AM 17.6 °F 8.4 °F 15.8 °F 93% 30.06 in 6.2 mi West 6.7 mph - N/A Snow Light Snow Showers
4:30 AM 17.6 °F 6.6 °F 14.0 °F 86% 30.06 in 6.2 mi West 8.9 mph - N/A   Scattered Clouds
5:00 AM 17 °F - 15 °F 89% 30.23 in - WNW 2.2 mph - - Snow Light Snow Showers
5:00 AM 15.8 °F - 14.0 °F 93% 30.06 in 3.1 mi NNW 2.2 mph - N/A   Scattered Clouds
6:00 AM 15.8 °F 6.2 °F 14.0 °F 93% 30.06 in 1.8 mi WNW 6.7 mph - N/A   Scattered Clouds
6:30 AM 15.8 °F 8.7 °F 14.0 °F 93% 30.06 in 0.3 mi NNW 4.5 mph - N/A Fog Light Freezing Fog
7:00 AM 15.8 °F - 12.2 °F 86% 30.06 in 0.5 mi Variable 2.2 mph - N/A Fog Light Freezing Fog
7:30 AM 14.0 °F - 12.2 °F 93% 30.06 in 1.1 mi Variable 2.2 mph - N/A   Scattered Clouds
8:00 AM 12 °F - 10 °F 87% 30.27 in - East 2.2 mph - -   Partly Cloudy
8:00 AM 10.4 °F - 8.6 °F 92% 30.09 in 1.9 mi South 2.2 mph - N/A   Scattered Clouds
8:30 AM 14.0 °F 6.6 °F 10.4 °F 86% 30.09 in 3.1 mi SSE 4.5 mph - N/A Fog Light Freezing Fog
9:00 AM 10.4 °F 2.4 °F 8.6 °F 92% 30.09 in 3.1 mi South 4.5 mph - N/A   Scattered Clouds
9:30 AM 8.6 °F - 5.0 °F 85% 30.12 in 3.1 mi North 2.2 mph - N/A   Scattered Clouds
10:00 AM 10.4 °F - 8.6 °F 92% 30.12 in 3.1 mi Variable 2.2 mph - N/A   Scattered Clouds
10:30 AM 6.8 °F -1.8 °F 3.2 °F 85% 30.09 in 6.2 mi East 4.5 mph - N/A   Scattered Clouds
11:00 AM 13 °F - 10 °F 83% 30.29 in 12 mi Calm Calm - -   Overcast
11:00 AM 12.2 °F - 10.4 °F 92% 30.09 in 6.2 mi Variable 2.2 mph - N/A   Scattered Clouds
11:30 AM 10.4 °F - 8.6 °F 92% 30.12 in 6.2 mi Variable 2.2 mph - N/A   Scattered Clouds
12:00 PM 12.2 °F - 8.6 °F 85% 30.09 in 6.2 mi Variable 2.2 mph - N/A   Partly Cloudy
12:30 PM 15.8 °F - 12.2 °F 86% 30.09 in 6.2 mi Variable 2.2 mph - N/A   Partly Cloudy
1:00 PM 15.8 °F 8.7 °F 12.2 °F 86% 30.09 in - East 4.5 mph - N/A   Clear
1:30 PM 14.0 °F - 12.2 °F 93% 30.06 in - SE 2.2 mph - N/A   Clear
2:00 PM 21 °F - 12 °F 57% 30.22 in 31 mi SE 2.2 mph - -   Scattered Clouds
2:00 PM 15.8 °F - 14.0 °F 93% 30.06 in - East 2.2 mph - N/A   Clear
2:30 PM 21.2 °F 15.0 °F 19.4 °F 93% 30.06 in - SE 4.5 mph - N/A   Clear
3:00 PM 17.6 °F - 15.8 °F 93% 30.06 in - Calm Calm - N/A   Clear
3:30 PM 17.6 °F - 14.0 °F 86% 30.06 in - Calm Calm - N/A   Clear
4:00 PM 19.4 °F - 12.2 °F 74% 30.06 in - Calm Calm - N/A   Clear
4:30 PM 17.6 °F 8.4 °F 8.6 °F 68% 30.06 in - WNW 6.7 mph - N/A   Clear
5:00 PM 19 °F - 10 °F 57% 30.24 in 12 mi NW 4.5 mph - -   Clear
5:00 PM 15.8 °F 6.2 °F 8.6 °F 73% 30.06 in - WNW 6.7 mph - N/A   Clear
5:30 PM 14.0 °F 4.1 °F 8.6 °F 79% 30.09 in - NW 6.7 mph - N/A   Clear
6:00 PM 15.8 °F 8.7 °F 10.4 °F 79% 30.09 in 3.1 mi NNW 4.5 mph - N/A   Smoke
6:30 PM 15.8 °F 8.7 °F 10.4 °F 79% 30.09 in 3.1 mi NNW 4.5 mph - N/A   Smoke
7:00 PM 12.2 °F - 10.4 °F 92% 30.09 in 3.1 mi Variable 2.2 mph - N/A   Smoke
7:30 PM 10.4 °F - 8.6 °F 92% 30.09 in 1.4 mi Variable 2.2 mph - N/A   Smoke
8:00 PM 9 °F - 8 °F 90% 30.30 in - Calm Calm - -  
8:00 PM 6.8 °F -1.8 °F 5.0 °F 92% 30.09 in 0.1 mi East 4.5 mph - N/A Fog Light Freezing Fog
8:30 PM 6.8 °F - 3.2 °F 85% 30.09 in 1.6 mi Variable 2.2 mph - N/A   Mist
9:00 PM 5.0 °F - 3.2 °F 92% 30.09 in 1.4 mi SE 2.2 mph - N/A   Mist
9:30 PM 5.0 °F -6.7 °F 1.4 °F 85% 30.09 in - South 6.7 mph - N/A   Mist
10:00 PM 1.4 °F - -2.2 °F 85% 30.09 in 2.5 mi Variable 2.2 mph - N/A Fog Light Freezing Fog
10:30 PM -2.2 °F - -5.8 °F 85% 30.09 in 3.1 mi Variable 2.2 mph - N/A   Mist
11:00 PM 2 °F - -1 °F 81% 30.31 in - ENE 2.2 mph - -   Clear
11:00 PM -4.0 °F -14.3 °F -7.6 °F 85% 30.09 in 3.1 mi ENE 4.5 mph - N/A   Mist
11:30 PM -5.8 °F -16.4 °F -9.4 °F 84% 30.06 in - ENE 4.5 mph - N/A   Clear